Home > Weather > Nanjing > Past weeks

Flag for China Past Weather in Nanjing, Jiangsu, China — Yesterday and Last 2 Weeks

Now
84 °F

Fog.


Feels Like: 98 °F
Forecast: 83 / 99 °F
Wind: 3 mph from East

Location: Nanjing

Current Time: Jul 30, 2016 at 5:46:43 AM

Latest Report: Jul 30, 2016 at 5:00 AM


Visibility: 3 mi

Pressure: 29.71 "Hg

Humidity: 89%

Dew Point: 81 °F

Location of NanjingLocation

Past Weather in Nanjing — Graph

°F

Nanjing Temperature Yesterday

Maximum temperature yesterday: 102 °F (at 2:00 PM)
Minimum temperature yesterday: 84 °F (at 3:00 AM)
Average temperature yesterday: 93 °F

High & Low Weather Summary for the Past Weeks

 TemperatureHumidityPressure
High102 °F (Jul 25, 1:00 PM)100% (Jul 15, 4:00 AM)29.74 "Hg (Jul 15, 4:00 AM)
Low72 °F (Jul 16, 4:00 AM)40% (Jul 29, 4:00 PM)29.45 "Hg (Jul 15, 3:00 PM)
Average88 °F74%29.66 "Hg
* Reported Jul 15 4:00 AM — Jul 30 4:00 AM, Nanjing, Weather by CustomWeather, © 2016

Note: Actual official high and low records may vary slightly from our data, if they occured in-between our weather recording intervals... More about our weather records

Advertising

Nanjing Weather History for the Previous 24 Hours

Scroll right to see more
 ConditionsComfort  
Time TempWeatherWind HumidityBarometerVisibility
4:00 AM
Sat, Jul 30
86 °FFog.1 mph84%29.71 "Hg3 mi
3:00 AM86 °FClear.1 mph84%29.71 "Hg4 mi
2:00 AM88 °FClear.3 mph79%29.71 "Hg5 mi
1:00 AM90 °FClear.3 mph75%29.71 "Hg6 mi
12:00 AM90 °FClear.1 mph75%29.71 "Hg10 mi
11:00 PM
Fri, Jul 29
90 °FClear.3 mph75%29.71 "Hg10 mi
10:00 PM88 °FClear.1 mph84%29.71 "Hg10 mi
9:00 PM90 °FClear.No wind79%29.71 "Hg10 mi
8:00 PM91 °FClear.1 mph67%29.68 "Hg10 mi
7:00 PM97 °FSunny.3 mph53%29.65 "Hg10 mi
6:00 PM99 °FPassing clouds.3 mph47%29.65 "HgN/A
5:00 PM100 °FPassing clouds.8 mph42%29.68 "HgN/A
4:00 PM102 °FPassing clouds.8 mph40%29.68 "HgN/A
3:00 PM102 °FPassing clouds.6 mph42%29.68 "HgN/A
2:00 PM102 °FPassing clouds.6 mph45%29.68 "HgN/A
1:00 PM100 °FPassing clouds.3 mph47%29.71 "HgN/A
12:00 PM99 °FSunny.3 mph53%29.71 "Hg10 mi
11:00 AM99 °FPassing clouds.6 mph53%29.71 "HgN/A
10:00 AM97 °FSunny.6 mph53%29.74 "Hg10 mi
9:00 AM95 °FPassing clouds.6 mph60%29.74 "HgN/A
8:00 AM93 °FClear.1 mph67%29.71 "Hg4 mi
7:00 AM88 °FClear.1 mph79%29.71 "Hg4 mi
6:00 AM84 °FClear.No wind94%29.68 "Hg4 mi
5:00 AM84 °FClear.1 mph89%29.68 "Hg4 mi
Weather by CustomWeather, © 2016

See weather overviewHow to use our weather pages